Location: Newark
(50.0306°N, 2.3272°E)
Time: 15:17:19
(UTC+00:00)

Transit 2A Rocket - Visible Passes

Search period start: 09 December 2019 00:00
Search period end: 19 December 2019 00:00
Orbit: 594 x 909 km, 66.7° (Epoch: 08 December)

Date Brightness Start Highest point End Pass type
(mag) Time Alt. Az. Time Alt. Az. Time Alt. Az.
09 Dec 4.5 16:58:28 10° SW 17:02:59 88° WNW 17:06:56 13° NE visible
09 Dec 6.6 18:42:57 10° W 18:46:08 19° NNW 18:46:50 19° NNW visible
10 Dec 6.2 17:59:31 10° W 18:03:18 27° NW 18:05:32 18° N visible
11 Dec 5.6 17:16:22 10° WSW 17:20:33 39° NW 17:24:12 13° NNE visible
11 Dec 7.1 19:02:25 10° NW 19:04:06 12° NNW 19:04:06 12° NNW visible
12 Dec 4.9 16:33:29 10° SW 16:37:55 63° NW 16:42:14 10° NNE visible
12 Dec 6.7 18:18:35 10° WNW 18:21:18 16° NNW 18:22:45 14° N visible
13 Dec 6.5 17:35:01 10° W 17:38:24 21° NW 17:41:23 12° NNE visible
14 Dec 6.0 16:51:40 10° WSW 16:55:35 30° NW 16:59:27 10° NNE visible
14 Dec 7.1 18:38:23 10° NNW 18:39:33 11° NNW 18:39:53 11° N visible
15 Dec 6.9 17:54:19 10° NW 17:56:30 13° NNW 17:58:29 11° N visible
16 Dec 6.7 17:10:34 10° WNW 17:13:32 17° NNW 17:16:29 10° NNE visible
17 Dec 6.3 16:27:05 10° W 16:30:39 24° NW 16:34:12 10° NNE visible
18 Dec 6.9 17:30:11 10° NW 17:31:44 12° NNW 17:33:18 10° N visible
